Voltar ao catálogo

FENGYUN 1C DEB

AtivoSSO
NORAD 30299·DEBRIS·🇨🇳 China

Lançado May 10, 1999 de Taiyuan Satellite Launch Center

Loading…

Próximas Passagens (próximas 24 horas)

TLE

AtualizadoSource: Space-Track

Época: Sep 14, 2026, 03:42 UTC

1 30299U 99025ZL  26257.15422709  .00001482  00000-0  84153-3 0  9999
2 30299  99.0804 336.3826 0101363 317.8448  70.4310 14.09009038  1498

Acompanhe FENGYUN 1C DEB em tempo real com AllMySat

Download on the App Store